Regional Weather Roundup
Issued by NWS Jackson, KY

Home | Current Version | Previous Version | Text Only | Print | Product List | Glossary On
Versions: 1 2 3 4 5 6 7 8 9 10 11 12 13 14 15 16 17 18 19 20 21 22 23 24 25 26 27 28 29 30 31 32 33 34 35 36 37 38 39 40 41 42 43 44 45 46 47 48 49 50
000
ASUS43 KJKL 270419
RWRJKL

EAST KENTUCKY HOURLY WEATHER ROUNDUP
NATIONAL WEATHER SERVICE JACKSON KY
1100 PM EST FRI DEC 26 2014

NOTE: "FAIR" INDICATES FEW OR NO CLOUDS BELOW 12,000 FEET WITH
NO SIGNIFICANT WEATHER AND/OR OBSTRUCTIONS TO VISIBILITY.

* THESE REPORTS ARE NOT UNDER NWS QUALITY CONTROL AND MAY NOT
  REPORT WEATHER SUCH AS PRECIPITATION AND FOG.

KYZ079-080-083-085-087-088-110-112-115-119-120-270500
...EASTERN KENTUCKY...

CITY           SKY/WX    TMP DP  RH WIND       PRES   REMARKS
JACKSON        CLOUDY    46  26  45 S5        30.21F
LONDON         CLOUDY    46  28  49 S3        30.24R
SOMERSET*      CLOUDY    45  32  61 S3        30.25S
MONTICELLO*    CLOUDY    44  35  70 CALM      30.26S
MIDDLESBORO*   CLOUDY    43  33  69 W3        30.26S
HARLAN APT*    CLOUDY    46  27  46 CALM      30.24R
BLACK MTN*       N/A     45  12  26 S6          N/A
PIKEVILLE APT* CLEAR     46  27  46 CALM      30.21R
BIG SANDY*     CLOUDY    46  30  52 CALM      30.22R
MOREHEAD APT*  CLOUDY    45  32  61 CALM      30.23R
ASHLAND*       CLEAR    N/A N/A N/A SE3       30.20S
$$

KYZ035-036-041-042-044-050-067-078-099-270500
...CENTRAL KENTUCKY...

CITY           SKY/WX    TMP DP  RH WIND       PRES   REMARKS
MT STERLING*   CLOUDY    39  34  81 SW5       30.22S
FLEMING/MASON* CLEAR     45  32  61 S9        30.21R
DANVILLE*      CLOUDY    43  34  70 S5        30.22R
RICHMOND*      CLOUDY    45  32  61 S5        30.21R
LEXINGTON      CLOUDY    46  33  60 S10       30.20R
FRANKFORT      MOCLDY    47  32  56 S6        30.18R
$$

KYZ091>093-OHZ055-061-077-WVZ005-015-034-035-042-270500
...SOUTHERN OHIO/WEST VIRGINIA...

CITY           SKY/WX    TMP DP  RH WIND       PRES   REMARKS
COVINGTON      MOCLDY    45  32  60 S7        30.18R
COLUMBUS       MOCLDY    40  33  76 CALM      30.19R
DAYTON         CLOUDY    45  35  68 S8        30.17R
WILMINGTON     PTCLDY    41  33  73 S5        30.18R
HUNTINGTON     CLOUDY    39  33  79 SE3       30.21S
CHARLESTON     MOCLDY    37  33  85 SE5       30.21R WCI  33
PINEVILLE*     CLOUDY    35  35  98 MISG      30.26F
BECKLEY        MOCLDY    43  19  38 SE6       30.22S
BLUEFIELD      CLOUDY    47  13  25 SW6       30.24F
$$

VAZ002-007-008-TNZ017-027-036-066-071-270500
...SOUTHWEST VIRGINIA/EAST TENNESSEE...

CITY           SKY/WX    TMP DP  RH WIND       PRES   REMARKS
WISE*          CLOUDY    46  18  31 S3        30.24S
JONESVILLE*    CLOUDY    37  34  87 CALM      30.27S
ABINGDON*      CLOUDY    42  28  57 E5        30.27S
BRISTOL        CLOUDY    37  34  89 NE3       30.26F
KNOXVILLE      MOCLDY    39  36  89 SW6       30.26R WCI  35
OAK RIDGE      MOCLDY    41  36  82 CALM      30.27S
CROSSVILLE     CLOUDY    44  34  67 CALM      30.24F
NASHVILLE      CLOUDY    48  38  68 S7        30.22S
$$

...KEY TO REMARKS...
VSB - VISIBILITY IN MILES
WCI - WIND CHILL INDEX
HX  - HEAT INDEX

$$


USA.gov is the U.S. government's official web portal to all federal, state and local government web resources and services.